When you browse on this site, cookies collect data to enhance your experience and personalize the content and advertising you see.
Visit our Privacy Policy to learn more. By continuing to use the site, you agree to this use of cookies and data.
  • în România
  • Lista ţărilor
  • Pe 7 zile
  • Temperatura apei
  • Hartă satelitară
  • Meteo pe hartă
  • Widget-uri
  • user-avatar
    Intrare

    Meteo pe oră la Brčko

    Astăzi, 21 Martie, Joi

    Timp Temperatura Precipitaţii Vânt Presiune Umiditate
    00:00 +6°C° 0 mm 1 m/s 767 mmHg 60%
    01:00 +6°C° 0 mm 1 m/s 767 mmHg 63%
    02:00 +5°C° 0 mm 1 m/s 767 mmHg 64%
    03:00 +5°C° 0 mm 1 m/s 767 mmHg 66%
    04:00 +4°C° 0 mm 1 m/s 767 mmHg 67%
    05:00 +5°C° 0 mm 1 m/s 767 mmHg 66%
    06:00 +5°C° 0 mm 1 m/s 767 mmHg 65%
    07:00 +5°C° 0 mm 1 m/s 767 mmHg 64%
    08:00 +7°C° 0 mm 1 m/s 767 mmHg 57%
    09:00 +9°C° 0 mm 1 m/s 767 mmHg 51%
    10:00 +12°C° 0 mm 1 m/s 767 mmHg 44%
    11:00 +12°C° 0 mm 1 m/s 767 mmHg 41%
    12:00 +13°C° 0 mm 2 m/s 766 mmHg 38%
    13:00 +14°C° 0 mm 2 m/s 766 mmHg 35%
    14:00 +14°C° 0 mm 2 m/s 765 mmHg 35%
    15:00 +15°C° 0 mm 2 m/s 765 mmHg 35%
    16:00 +15°C° 0 mm 2 m/s 765 mmHg 35%
    17:00 +13°C° 0 mm 2 m/s 765 mmHg 39%
    18:00 +12°C° 0 mm 2 m/s 765 mmHg 43%
    19:00 +10°C° 0 mm 1 m/s 765 mmHg 47%
    20:00 +9°C° 0 mm 1 m/s 766 mmHg 48%
    21:00 +9°C° 0 mm 1 m/s 766 mmHg 50%
    22:00 +8°C° 0 mm 1 m/s 766 mmHg 51%
    23:00 +8°C° 0 mm 1 m/s 766 mmHg 52%

    Mâine, 22 Martie, Vineri

    Timp Temperatura Precipitaţii Vânt Presiune Umiditate
    00:00 +6°C° 0 mm 0 m/s 766 mmHg 53%
    01:00 +6°C° 0 mm 0 m/s 766 mmHg 54%
    02:00 +6°C° 0 mm 0 m/s 766 mmHg 56%
    03:00 +5°C° 0 mm 0 m/s 766 mmHg 57%
    04:00 +5°C° 0 mm 0 m/s 766 mmHg 58%
    05:00 +5°C° 0 mm 0 m/s 766 mmHg 58%
    06:00 +6°C° 0 mm 0 m/s 766 mmHg 58%
    07:00 +6°C° 0 mm 0 m/s 766 mmHg 58%
    08:00 +8°C° 0 mm 0 m/s 766 mmHg 52%
    09:00 +11°C° 0 mm 1 m/s 766 mmHg 46%
    10:00 +13°C° 0 mm 1 m/s 765 mmHg 40%
    11:00 +14°C° 0 mm 1 m/s 765 mmHg 38%
    12:00 +15°C° 0 mm 2 m/s 765 mmHg 36%
    13:00 +16°C° 0 mm 2 m/s 764 mmHg 34%
    14:00 +17°C° 0 mm 2 m/s 764 mmHg 35%
    15:00 +17°C° 0 mm 2 m/s 763 mmHg 36%
    16:00 +17°C° 0 mm 2 m/s 763 mmHg 37%
    17:00 +15°C° 0 mm 1 m/s 763 mmHg 42%
    18:00 +14°C° 0 mm 1 m/s 763 mmHg 47%
    19:00 +11°C° 0 mm 0 m/s 763 mmHg 52%
    20:00 +11°C° 0 mm 0 m/s 763 mmHg 54%
    21:00 +10°C° 0 mm 0 m/s 763 mmHg 56%
    22:00 +10°C° 0 mm 0 m/s 763 mmHg 58%
    23:00 +9°C° 0 mm 0 m/s 763 mmHg 60%

    Poimâine, 23 Martie, Sâmbătă

    Timp Temperatura Precipitaţii Vânt Presiune Umiditate
    00:00 +10°C° 0 mm 1 m/s 763 mmHg 61%
    01:00 +9°C° 0 mm 1 m/s 763 mmHg 63%
    02:00 +9°C° 0 mm 1 m/s 763 mmHg 65%
    03:00 +9°C° 0 mm 1 m/s 762 mmHg 66%
    04:00 +8°C° 0 mm 1 m/s 762 mmHg 67%
    05:00 +9°C° 0 mm 1 m/s 762 mmHg 68%
    06:00 +9°C° 0 mm 1 m/s 762 mmHg 68%
    07:00 +10°C° 0 mm 1 m/s 762 mmHg 69%
    08:00 +11°C° 0 mm 1 m/s 762 mmHg 65%
    09:00 +13°C° 0 mm 1 m/s 762 mmHg 61%
    10:00 +15°C° 0 mm 1 m/s 762 mmHg 58%
    11:00 +16°C° 0 mm 2 m/s 761 mmHg 54%
    12:00 +17°C° 0 mm 2 m/s 761 mmHg 51%
    13:00 +18°C° 0 mm 2 m/s 760 mmHg 48%
    14:00 +19°C° 0 mm 2 m/s 760 mmHg 48%
    15:00 +19°C° 0 mm 2 m/s 760 mmHg 47%
    16:00 +19°C° 0 mm 2 m/s 759 mmHg 47%
    17:00 +18°C° 0 mm 1 m/s 760 mmHg 53%
    18:00 +16°C° 0 mm 1 m/s 760 mmHg 58%
    19:00 +13°C° 0 mm 0 m/s 760 mmHg 63%
    20:00 +12°C° 0 mm 0 m/s 760 mmHg 66%
    21:00 +12°C° 0 mm 0 m/s 760 mmHg 68%
    22:00 +11°C° 0 mm 0 m/s 761 mmHg 71%
    23:00 +11°C° 0 mm 0 m/s 761 mmHg 72%

    24 Martie, Duminică

    Timp Temperatura Precipitaţii Vânt Presiune Umiditate
    00:00 +10°C° 0 mm 0 m/s 761 mmHg 74%
    01:00 +10°C° 0 mm 0 m/s 761 mmHg 75%
    02:00 +9°C° 0 mm 0 m/s 760 mmHg 77%
    03:00 +9°C° 0 mm 0 m/s 760 mmHg 78%
    04:00 +9°C° 0 mm 1 m/s 760 mmHg 80%
    05:00 +9°C° 0 mm 0 m/s 760 mmHg 78%
    06:00 +9°C° 0 mm 0 m/s 760 mmHg 77%
    07:00 +10°C° 0 mm 0 m/s 760 mmHg 76%
    08:00 +12°C° 0 mm 0 m/s 760 mmHg 67%
    09:00 +15°C° 0 mm 1 m/s 760 mmHg 59%
    10:00 +19°C° 0 mm 1 m/s 760 mmHg 50%
    11:00 +20°C° 0 mm 1 m/s 760 mmHg 44%
    12:00 +21°C° 0 mm 1 m/s 759 mmHg 38%
    13:00 +21°C° 0 mm 2 m/s 759 mmHg 33%
    14:00 +20°C° 0 mm 2 m/s 758 mmHg 32%
    15:00 +20°C° 0 mm 2 m/s 757 mmHg 32%
    16:00 +20°C° 0 mm 2 m/s 757 mmHg 32%
    17:00 +18°C° 0 mm 2 m/s 757 mmHg 36%
    18:00 +16°C° 0 mm 2 m/s 757 mmHg 41%
    19:00 +14°C° 0 mm 1 m/s 757 mmHg 45%
    20:00 +14°C° 0 mm 1 m/s 757 mmHg 47%
    21:00 +13°C° 0 mm 1 m/s 757 mmHg 49%
    22:00 +12°C° 0 mm 1 m/s 756 mmHg 51%
    23:00 +12°C° 0 mm 1 m/s 756 mmHg 52%

    25 Martie, Luni

    Timp Temperatura Precipitaţii Vânt Presiune Umiditate
    00:00 +12°C° 0 mm 1 m/s 756 mmHg 54%
    01:00 +11°C° 0 mm 1 m/s 756 mmHg 56%
    02:00 +11°C° 0 mm 1 m/s 756 mmHg 58%
    03:00 +11°C° 0 mm 1 m/s 755 mmHg 60%
    04:00 +10°C° 0 mm 1 m/s 755 mmHg 62%
    05:00 +11°C° 0 mm 1 m/s 755 mmHg 63%
    06:00 +11°C° 0 mm 1 m/s 755 mmHg 64%
    07:00 +12°C° 0 mm 2 m/s 755 mmHg 65%
    08:00 +14°C° 0 mm 2 m/s 755 mmHg 59%
    09:00 +16°C° 0 mm 2 m/s 755 mmHg 53%
    10:00 +18°C° 0 mm 3 m/s 755 mmHg 47%
    11:00 +19°C° 0 mm 3 m/s 755 mmHg 45%
    12:00 +20°C° 0 mm 4 m/s 754 mmHg 42%
    13:00 +21°C° 0 mm 4 m/s 754 mmHg 40%
    14:00 +20°C° 0 mm 5 m/s 754 mmHg 43%
    15:00 +19°C° 0 mm 5 m/s 753 mmHg 45%
    16:00 +19°C° 0 mm 6 m/s 753 mmHg 47%
    17:00 +16°C° 0 mm 5 m/s 754 mmHg 53%
    18:00 +14°C° 0 mm 4 m/s 754 mmHg 59%
    19:00 +12°C° 0 mm 3 m/s 754 mmHg 65%
    20:00 +12°C° 0.5 mm 2 m/s 755 mmHg 71%
    21:00 +12°C° 0.5 mm 2 m/s 755 mmHg 77%
    22:00 +12°C° 0.5 mm 2 m/s 755 mmHg 83%
    23:00 +10°C° 0.5 mm 2 m/s 756 mmHg 83%

    26 Martie, Marţi

    Timp Temperatura Precipitaţii Vânt Presiune Umiditate
    00:00 +10°C° 0.5 mm 2 m/s 756 mmHg 83%
    01:00 +10°C° 0.5 mm 2 m/s 756 mmHg 83%
    02:00 +9°C° 0.2 mm 2 m/s 756 mmHg 81%
    03:00 +9°C° 0.2 mm 2 m/s 756 mmHg 78%
    04:00 +9°C° 0.2 mm 3 m/s 756 mmHg 76%
    05:00 +8°C° 0.1 mm 2 m/s 756 mmHg 75%
    06:00 +8°C° 0.1 mm 2 m/s 756 mmHg 75%
    07:00 +9°C° 0.1 mm 1 m/s 756 mmHg 74%
    08:00 +8°C° 0.3 mm 2 m/s 756 mmHg 72%
    09:00 +8°C° 0.3 mm 3 m/s 756 mmHg 69%
    10:00 +7°C° 0.3 mm 4 m/s 757 mmHg 67%
    11:00 +7°C° 0.3 mm 5 m/s 757 mmHg 59%
    12:00 +7°C° 0.3 mm 5 m/s 756 mmHg 52%
    13:00 +7°C° 0.3 mm 6 m/s 756 mmHg 45%
    14:00 +7°C° 0.1 mm 6 m/s 757 mmHg 44%
    15:00 +7°C° 0.1 mm 5 m/s 757 mmHg 44%
    16:00 +7°C° 0.1 mm 5 m/s 757 mmHg 43%
    17:00 +6°C° 0.1 mm 4 m/s 758 mmHg 45%
    18:00 +5°C° 0.1 mm 4 m/s 758 mmHg 47%
    19:00 +4°C° 0.1 mm 4 m/s 758 mmHg 50%
    20:00 +4°C° 0.1 mm 4 m/s 758 mmHg 52%
    21:00 +3°C° 0.1 mm 3 m/s 759 mmHg 55%
    22:00 +3°C° 0.1 mm 3 m/s 759 mmHg 58%
    23:00 +3°C° 0.2 mm 3 m/s 759 mmHg 62%
    Arată mai mult